Pompano Beach, FL

8:03 AM EDT on October 19, 2017 (GMT -0400)
Pompano Beach

Weather History for KPMP - March, 2012

Change the Weather History Date:

Saturday, March 17, 2012

  Actual Average Record
Temperature  
Mean Temperature 72 °F -  
Max Temperature 81 °F 81 °F 89 °F (1975)
Min Temperature 66 °F 62 °F 41 °F (1952)
Cooling Degree Days 8    
Growing Degree Days 22 (Base 50)    
Moisture  
Dew Point 62 °F    
Average Humidity 67    
Maximum Humidity 90    
Minimum Humidity 56    
Precipitation  
Precipitation 0.00 in - - ()
Sea Level Pressure  
Sea Level Pressure 30.19 in    
Wind  
Wind Speed 9 mph (ENE)    
Max Wind Speed 14 mph    
Max Gust Speed 16 mph    
Visibility 10 miles    
Events      
Averages and records for this station are not official NWS values.
T = Trace of Precipitation, MM = Missing Value Source: NWS Daily Summary

Daily Weather History Graph

Daily Weather History Graph

Search for Another Location

Airport or City:

Trip Planner

Search our weather history database for the weather conditions in past years. The results will help you decide how hot, cold, wet, or windy it might be!

Date:

Astronomy

Mar. 17, 2012 Rise Set
Actual Time 7:27 AM EDT 7:30 PM EDT
Civil Twilight 7:04 AM EDT 7:53 PM EDT
Nautical Twilight 6:37 AM EDT 8:20 PM EDT
Astronomical Twilight 6:10 AM EDT 8:47 PM EDT
Moon 4:02 AM EDT (3/17) 3:16 PM EDT (3/17)
Length of Visible Light 12h 49m
Length of Day
12h 03m
Waning Crescent, 23% of the Moon is Illuminated
Mar 17
Waning Crescent
Mar 22
New
Mar 30
First Quarter
Apr 6
Full
Apr 13
Last Quarter

Hourly Weather History & Observations

Time (EDT) Temp. Dew Point Humidity Pressure Visibility Wind Dir Wind Speed Gust Speed Precip Events Conditions
12:53 AM 73.0 °F 64.0 °F 73% 30.21 in 10.0 mi ENE 10.4 mph - N/A   Partly Cloudy
1:53 AM 72.0 °F 63.0 °F 73% 30.19 in 10.0 mi ENE 9.2 mph - N/A   Partly Cloudy
2:53 AM 72.0 °F 62.1 °F 71% 30.17 in 10.0 mi East 10.4 mph - N/A   Scattered Clouds
3:53 AM 71.1 °F 61.0 °F 70% 30.15 in 10.0 mi ENE 9.2 mph - N/A   Clear
4:53 AM 71.1 °F 62.1 °F 73% 30.14 in 10.0 mi ENE 4.6 mph - N/A   Partly Cloudy
5:53 AM 70.0 °F 63.0 °F 78% 30.16 in 10.0 mi ENE 4.6 mph - N/A   Scattered Clouds
6:53 AM 70.0 °F 63.0 °F 78% 30.17 in 10.0 mi NE 3.5 mph - N/A   Clear
7:53 AM 66.9 °F 64.0 °F 90% 30.20 in 10.0 mi NNE 3.5 mph - N/A   Clear
8:53 AM 71.1 °F 64.0 °F 78% 30.21 in 10.0 mi North 3.5 mph - N/A   Partly Cloudy
9:53 AM 75.9 °F 62.1 °F 62% 30.23 in 10.0 mi NE 8.1 mph - N/A   Scattered Clouds
10:53 AM 78.1 °F 62.1 °F 58% 30.23 in 10.0 mi NE 11.5 mph - N/A   Clear
11:53 AM 78.1 °F 63.0 °F 60% 30.23 in 10.0 mi ENE 10.4 mph 16.1 mph N/A   Scattered Clouds
12:53 PM 78.1 °F 62.1 °F 58% 30.22 in 10.0 mi NE 11.5 mph - N/A   Clear
1:53 PM 79.0 °F 62.1 °F 56% 30.20 in 10.0 mi ENE 12.7 mph - N/A   Scattered Clouds
2:53 PM 79.0 °F 62.1 °F 56% 30.18 in 10.0 mi East 13.8 mph - N/A   Scattered Clouds
3:53 PM 78.1 °F 62.1 °F 58% 30.16 in 10.0 mi ENE 12.7 mph - N/A   Scattered Clouds
4:53 PM 78.1 °F 62.1 °F 58% 30.15 in 10.0 mi ENE 9.2 mph - N/A   Scattered Clouds
5:53 PM 77.0 °F 62.1 °F 60% 30.15 in 10.0 mi ENE 11.5 mph - N/A   Scattered Clouds
6:53 PM 75.0 °F 62.1 °F 64% 30.16 in 10.0 mi ENE 11.5 mph - N/A   Partly Cloudy
7:53 PM 73.9 °F 62.1 °F 66% 30.17 in 10.0 mi ENE 10.4 mph - N/A   Partly Cloudy
8:53 PM 73.0 °F 60.1 °F 64% 30.17 in 10.0 mi East 10.4 mph - N/A   Clear
9:53 PM 73.9 °F 63.0 °F 68% 30.20 in 10.0 mi ENE 10.4 mph - N/A   Scattered Clouds
10:53 PM 73.9 °F 63.0 °F 68% 30.20 in 10.0 mi NE 10.4 mph - N/A   Scattered Clouds
11:53 PM 73.0 °F 62.1 °F 68% 30.20 in 10.0 mi ENE 12.7 mph - N/A   Clear